Regional Weather Roundup
Issued by NWS

Home | Current Version | Previous Version | Graphics & Text | Print | Product List | Glossary Off
Versions: 1 2 3 4 5 6 7 8 9 10 11 12 13 14 15 16 17 18 19 20 21 22 23 24 25 26 27 28 29 30 31 32 33 34 35 36 37 38 39 40 41 42 43 44 45 46 47 48 49 50

000
ASUS43 KDMX 291603
RWRIA

WEATHER ROUNDUP FOR IOWA
NATIONAL WEATHER SERVICE DES MOINES IA
1100 AM CDT SUN MAY 29 2016

NOTE: "FAIR" INDICATES FEW OR NO CLOUDS BELOW 12,000 FEET WITH NO
SIGNIFICANT WEATHER AND/OR OBSTRUCTIONS TO VISIBILITY.

* - THESE STATIONS ARE NOT NWS STATIONS...THUS NOT UNDER NWS
QUALITY CONTROL.  THEY ALSO DO NOT REPORT WEATHER SUCH
AS PRECIPITATION OR FOG.

IAZ001>003-012>014-020>022-031>034-043>046-291700-
   NORTHWEST IOWA

CITY           SKY/WX    TMP DP  RH WIND       PRES   REMARKS
CARROLL *      SUNNY     73  59  60 W12       30.08S
CHEROKEE *     SUNNY     71  63  76 SW7       30.07S
DENISON *      SUNNY     72  61  68 VRB6      30.08R
LE MARS *      SUNNY     73  61  64 SW10      30.08R
ORANGE CITY *  SUNNY     72  63  73 SW13      30.07R
SHELDON *      SUNNY     70  63  78 SW13      30.05R
SIOUX CITY     SUNNY     75  59  57 W7        30.07S
SPENCER        SUNNY     72  60  66 W14       30.06R
STORM LAKE *   SUNNY     70  59  68 W12G18    30.08S
$$

IAZ055>058-069>071-079>083-090>094-291700-
   SOUTHWEST IOWA

CITY           SKY/WX    TMP DP  RH WIND       PRES   REMARKS
ATLANTIC *     CLOUDY    72  57  60 W6        30.10S
AUDUBON *      SUNNY     73  61  64 SW5       30.10S
CLARINDA *       N/A     73  63  68 MISG      30.12S
COUNCIL BLFS * SUNNY     72  59  64 SW6       30.10F
CRESTON *      MOSUNNY   72  57  60 SW6       30.12S
HARLAN  *      SUNNY     70  59  68 SW9       30.14R
LAMONI           N/A     74  59  59 W10       30.11R
RED OAK *      MOSUNNY   73  59  60 S5        30.11S
SHENANDOAH *   SUNNY     75  61  60 CALM      30.10F
$$

IAZ047>049-059>061-072>074-084-291700-
   CENTRAL IOWA

CITY           SKY/WX    TMP DP  RH WIND       PRES   REMARKS
AMES           SUNNY     72  62  71 W12       30.07S
ANKENY *       SUNNY     72  61  68 W10       30.08R
BOONE *        SUNNY     72  61  68 W9        30.07S
CHARITON *     SUNNY     73  59  60 W10       30.10R
DES MOINES     MOSUNNY   74  58  57 W9        30.08S
GRINNELL*      SUNNY     72  61  68 W8        30.08R
KNOXVILLE *    SUNNY     72  59  64 W10G17    30.08R
MARSHALLTOWN   MOSUNNY   72  61  68 W9        30.06R
NEWTON *       SUNNY     72  63  73 W12       30.08R
PERRY *          N/A     72  63  73 W10       30.08S
$$

IAZ004>006-015-016-023>025-035-036-291700-
   NORTH CENTRAL IOWA

CITY           SKY/WX    TMP DP  RH WIND       PRES   REMARKS
ALGONA *       SUNNY     73  63  68 W14       30.05R
CLARION *      SUNNY     72  61  68 W16       30.06R
ESTHERVILLE    MOSUNNY   71  62  73 W20       30.04R
FORT DODGE *   SUNNY     73  57  56 W10       30.07S
MASON CITY     MOSUNNY   71  62  73 W17       30.05R
FOREST CITY *  MOSUNNY   70  61  73 W8G16     30.03S
WEBSTER CITY * SUNNY     73  61  64 W14       30.05S
IOWA FALLS *     N/A     72  61  68 W13       30.07R
$$

IAZ007>011-017>019-026>030-037>042-050>054-066-291700-
   NORTHEAST IOWA

CITY           SKY/WX    TMP DP  RH WIND       PRES   REMARKS
CEDAR RAPIDS   MOSUNNY   72  63  73 W14G22    30.05R
CHARLES CITY * MOSUNNY   70  63  78 W13G21    30.03R
CLINTON *      MOSUNNY   72  63  73 W15       30.05R
DECORAH *      PTSUNNY   70  61  73 W13       30.00R
DUBUQUE        MOSUNNY   71  61  70 W17       30.03R
MONTICELLO *   MOSUNNY   72  61  68 W14       30.04R
OELWEIN *      MOSUNNY   72  61  68 W13G21    30.04R
WATERLOO       MOSUNNY   74  59  59 W12       30.03R
$$

IAZ064-065-067-068-078-291700-
   EAST CENTRAL IOWA

CITY           SKY/WX    TMP DP  RH WIND       PRES   REMARKS
DAVENPORT      MOSUNNY   73  61  65 W15       30.06R
IOWA CITY      SUNNY     73  61  65 W14       30.07R
MT. PLEASANT * SUNNY     75  63  64 W9        30.09R
MUSCATINE *    MOSUNNY   73  61  64 W13       30.06S
QUAD CITIES    MOSUNNY   74  61  63 W12G20    30.05R
$$

IAZ062-063-075>077-085>089-095>099-291700-
   SOUTHEAST IOWA

CITY           SKY/WX    TMP DP  RH WIND       PRES   REMARKS
BURLINGTON     SUNNY     74  60  61 W7G18     30.07S
FAIRFIELD *      N/A    N/A N/A N/A MISG        N/A
FORT MADISON * SUNNY     73  63  68 W6        30.09S
KEOKUK *       SUNNY     75  61  60 W10       30.08S
OSKALOOSA *      N/A     73  59  60 W8        30.09R
OTTUMWA        SUNNY     72  60  66 W10       30.09R
WASHINGTON *   MOSUNNY   73 -36   1 W14       30.09R
$$

ABBREVIATIONS USED IN REMARKS
   TC - TEMPERATURES IN CELSIUS
  WCI - WIND CHILL INDEX
   HX - HEAT INDEX
  VSB - VISIBILITY
$$





USA.gov is the U.S. government's official web portal to all federal, state and local government web resources and services.